Kingstree, SC

7:01 PM EST on December 09, 2019 (GMT -0500)
Williamsburg County

Weather History for KCKI - October, 2019

Change the Weather History Date:

Tuesday, October 8, 2019

  Actual Average Record
Temperature  
Mean Temperature 72 °F -  
Max Temperature 78 °F 78 °F 89 °F (2014)
Min Temperature 66 °F 50 °F 53 °F (2010)
Cooling Degree Days 7    
Growing Degree Days 22 (Base 50)    
Moisture  
Dew Point 66 °F    
Average Humidity 87    
Maximum Humidity 100    
Minimum Humidity 61    
Precipitation  
Precipitation 0.00 in - - ()
Sea Level Pressure  
Sea Level Pressure 30.00 in    
Wind  
Wind Speed 1 mph ()    
Max Wind Speed 9 mph    
Max Gust Speed 17 mph    
Visibility 7.7 miles    
Events      
Averages and records for this station are not official NWS values.
T = Trace of Precipitation, MM = Missing Value Source: Averaged Metar Reports

Daily Weather History Graph

Daily Weather History Graph

Search for Another Location

Airport or City:

Astronomy

Oct. 08, 2019 Rise Set
Actual Time 7:18 AM EDT 6:54 PM EDT
Civil Twilight 6:53 AM EDT 7:19 PM EDT
Nautical Twilight 6:24 AM EDT 7:48 PM EDT
Astronomical Twilight 5:56 AM EDT 8:17 PM EDT
Moon 4:35 PM EDT (10/8) 2:25 AM EDT (10/8)
Length of Visible Light 12h 25m
Length of Day
11h 35m
Waxing Gibbous, 77% of the Moon is Illuminated
Oct 8
Waxing Gibbous
Oct 13
Full
Oct 21
Last Quarter
Oct 27
New
Nov 4
First Quarter

Hourly Weather History & Observations

Time (EDT) Temp. Dew Point Humidity Pressure Visibility Wind Dir Wind Speed Gust Speed Precip Events Conditions
12:15 AM 69.8 °F 68.0 °F 94% 30.00 in 7.0 mi Calm Calm - N/A   Overcast
12:35 AM 69.8 °F 68.0 °F 94% 30.00 in 7.0 mi Calm Calm - N/A   Mostly Cloudy
12:55 AM 69.8 °F 68.0 °F 94% 29.99 in 7.0 mi Calm Calm - N/A   Overcast
1:15 AM 69.8 °F 68.0 °F 94% 29.98 in 7.0 mi Calm Calm - N/A   Overcast
1:35 AM 69.8 °F 68.0 °F 94% 29.98 in 7.0 mi Calm Calm - N/A   Overcast
1:55 AM 69.8 °F 68.0 °F 94% 29.98 in 7.0 mi Calm Calm - N/A   Scattered Clouds
2:15 AM 69.8 °F 68.0 °F 94% 29.97 in 10.0 mi Calm Calm - N/A   Mostly Cloudy
2:35 AM 69.8 °F 68.0 °F 94% 29.96 in 7.0 mi Calm Calm - N/A   Mostly Cloudy
2:55 AM 69.8 °F 68.0 °F 94% 29.96 in 7.0 mi Calm Calm - N/A   Mostly Cloudy
3:15 AM 69.8 °F 68.0 °F 94% 29.95 in 10.0 mi Calm Calm - N/A   Scattered Clouds
3:35 AM 69.8 °F 68.0 °F 94% 29.96 in 7.0 mi Calm Calm - N/A   Clear
3:55 AM 69.8 °F 68.0 °F 94% 29.96 in 7.0 mi Calm Calm - N/A   Clear
4:15 AM 68.0 °F 68.0 °F 100% 29.95 in 7.0 mi Calm Calm - N/A   Clear
4:35 AM 68.0 °F 68.0 °F 100% 29.95 in 7.0 mi Calm Calm - N/A   Clear
4:55 AM 68.0 °F 68.0 °F 100% 29.96 in 7.0 mi Calm Calm - N/A   Clear
5:15 AM 68.0 °F 68.0 °F 100% 29.96 in 10.0 mi Calm Calm - N/A   Clear
5:35 AM 68.0 °F 68.0 °F 100% 29.96 in 7.0 mi Calm Calm - N/A   Clear
5:55 AM 68.0 °F 68.0 °F 100% 29.96 in 7.0 mi Calm Calm - N/A   Scattered Clouds
6:15 AM 68.0 °F 68.0 °F 100% 29.96 in 7.0 mi Calm Calm - N/A   Scattered Clouds
6:35 AM 68.0 °F 68.0 °F 100% 29.95 in 7.0 mi Calm Calm - N/A   Scattered Clouds
6:55 AM 68.0 °F 68.0 °F 100% 29.96 in 7.0 mi Calm Calm - N/A   Clear
7:15 AM 68.0 °F 68.0 °F 100% 29.96 in 7.0 mi Calm Calm - N/A   Clear
7:35 AM 68.0 °F 66.2 °F 94% 29.97 in 7.0 mi Calm Calm - N/A   Scattered Clouds
7:55 AM 68.0 °F 68.0 °F 100% 29.97 in 5.0 mi Calm Calm - N/A   Scattered Clouds
8:15 AM 68.0 °F 68.0 °F 100% 29.97 in 5.0 mi Calm Calm - N/A   Clear
8:35 AM 68.0 °F 68.0 °F 100% 29.98 in 5.0 mi Calm Calm - N/A   Clear
8:55 AM 69.8 °F 68.0 °F 94% 29.98 in 7.0 mi Calm Calm - N/A   Clear
9:15 AM 69.8 °F 68.0 °F 94% 29.99 in 5.0 mi Calm Calm - N/A   Clear
9:35 AM 69.8 °F 68.0 °F 94% 29.99 in 7.0 mi Calm Calm - N/A   Mostly Cloudy
9:55 AM 69.8 °F 69.8 °F 100% 30.00 in 7.0 mi Calm Calm - N/A   Scattered Clouds
10:15 AM 71.6 °F 69.8 °F 94% 30.01 in 7.0 mi Calm Calm - N/A   Clear
10:35 AM 71.6 °F 69.8 °F 94% 30.01 in 7.0 mi North 5.8 mph - N/A   Mostly Cloudy
10:55 AM 71.6 °F 69.8 °F 94% 30.01 in 7.0 mi North 4.6 mph - N/A   Mostly Cloudy
11:15 AM 71.6 °F 69.8 °F 94% 30.02 in 7.0 mi Calm Calm - N/A   Mostly Cloudy
11:35 AM 71.6 °F 68.0 °F 88% 30.02 in 7.0 mi North 5.8 mph - N/A   Mostly Cloudy
11:55 AM 73.4 °F 68.0 °F 83% 30.02 in 7.0 mi NNE 4.6 mph - N/A   Mostly Cloudy
12:15 PM 73.4 °F 68.0 °F 83% 30.02 in 7.0 mi Calm Calm - N/A   Scattered Clouds
12:35 PM 73.4 °F 68.0 °F 83% 30.01 in 7.0 mi Calm Calm - N/A   Scattered Clouds
12:55 PM 73.4 °F 68.0 °F 83% 30.01 in 7.0 mi Calm Calm - N/A   Mostly Cloudy
1:15 PM 75.2 °F 66.2 °F 73% 30.00 in 7.0 mi Calm Calm - N/A   Scattered Clouds
1:35 PM 77.0 °F 66.2 °F 69% 30.00 in 10.0 mi NNE 3.5 mph - N/A   Mostly Cloudy
1:55 PM 75.2 °F 68.0 °F 78% 29.98 in 10.0 mi Calm Calm - N/A   Overcast
2:15 PM 77.0 °F 64.4 °F 65% 29.98 in 7.0 mi North 8.1 mph - N/A   Overcast
2:35 PM 77.0 °F 64.4 °F 65% 29.98 in 7.0 mi North 6.9 mph - N/A   Overcast
2:55 PM 78.8 °F 64.4 °F 61% 29.98 in 10.0 mi North 6.9 mph - N/A   Overcast
3:15 PM 77.0 °F 64.4 °F 65% 29.98 in 7.0 mi North 8.1 mph - N/A   Overcast
3:55 PM 77.0 °F 66.2 °F 69% 29.98 in 7.0 mi North 6.9 mph - N/A   Overcast
4:15 PM 77.0 °F 64.4 °F 65% 29.98 in 5.0 mi North 4.6 mph - N/A   Haze
4:35 PM 75.2 °F 64.4 °F 69% 29.98 in 7.0 mi North 5.8 mph - N/A   Overcast
4:55 PM 73.4 °F 64.4 °F 73% 29.98 in 7.0 mi North 6.9 mph 17.3 mph N/A   Mostly Cloudy
5:15 PM 73.4 °F 62.6 °F 69% 29.98 in 7.0 mi North 9.2 mph - N/A   Scattered Clouds
5:35 PM 71.6 °F 62.6 °F 73% 29.99 in 10.0 mi North 5.8 mph - N/A   Mostly Cloudy
5:55 PM 71.6 °F 62.6 °F 73% 30.00 in 10.0 mi Calm Calm - N/A   Overcast
6:15 PM 71.6 °F 62.6 °F 73% 30.00 in 7.0 mi Calm Calm - N/A   Overcast
6:35 PM 69.8 °F 62.6 °F 78% 30.01 in 7.0 mi North 4.6 mph - N/A   Overcast
6:55 PM 69.8 °F 62.6 °F 78% 30.01 in 10.0 mi Calm Calm - N/A   Overcast
7:15 PM 69.8 °F 62.6 °F 78% 30.02 in 7.0 mi North 5.8 mph - N/A   Overcast
7:35 PM 69.8 °F 62.6 °F 78% 30.02 in 10.0 mi North 5.8 mph - N/A   Overcast
7:55 PM 69.8 °F 62.6 °F 78% 30.02 in 10.0 mi North 5.8 mph - N/A   Overcast
8:15 PM 68.0 °F 62.6 °F 83% 30.03 in 7.0 mi Calm Calm - N/A   Overcast
8:35 PM 68.0 °F 62.6 °F 83% 30.04 in 10.0 mi North 6.9 mph - N/A   Overcast
8:55 PM 68.0 °F 62.6 °F 83% 30.05 in 10.0 mi Calm Calm - N/A   Overcast
9:15 PM 68.0 °F 62.6 °F 83% 30.05 in 10.0 mi Calm Calm - N/A   Overcast
9:35 PM 68.0 °F 62.6 °F 83% 30.05 in 10.0 mi Calm Calm - N/A   Overcast
9:55 PM 68.0 °F 62.6 °F 83% 30.06 in 10.0 mi Calm Calm - N/A   Overcast
10:15 PM 68.0 °F 62.6 °F 83% 30.06 in 10.0 mi North 4.6 mph - N/A   Overcast
10:35 PM 66.2 °F 62.6 °F 88% 30.07 in 10.0 mi Calm Calm - N/A   Overcast
11:15 PM 66.2 °F 62.6 °F 88% 30.08 in 10.0 mi NNW 3.5 mph - N/A   Overcast
11:35 PM 66.2 °F 62.6 °F 88% 30.07 in 10.0 mi NNW 3.5 mph - N/A   Overcast
11:55 PM 66.2 °F 62.6 °F 88% 30.07 in 7.0 mi Calm Calm - N/A   Overcast